Terminal Aerodrome Forecast
Issued by NWS

Home | Current Version | Previous Version | Text Only | Print | Product List | Glossary On
Versions: 1 2 3 4 5 6 7 8 9 10 11 12 13 14 15 16 17 18 19 20 21
000
FTUS41 KCAR 230539
TAFBHB
TAF
KBHB 230539Z 2306/2406 28009KT P6SM BKN090
     FM231400 31015G23KT P6SM SCT070
     FM232200 26009KT P6SM FEW150
      AMD LTD TO CLD VIS AND WIND=

USA.gov is the U.S. government's official web portal to all federal, state and local government web resources and services.